WetterOnline ( https://www.wetteronline.de )

Wetter aktuell Spiegelau

Aktuelles Wetter: Churanov/Böhmerwald (1122m)

6-stündlich | Neueste Meldungen
Ortszeit Temperatur Wetter
Sa, 19.09. 2:00 7.9° C -
Fr, 18.09. 20:00 8.7° C fast wolkenlos
Fr, 18.09. 14:00 12.1° C wolkenlos
Fr, 18.09. 8:00 4.5° C leicht bewölkt
Fr, 18.09. 2:00 5.9° C bewölkt
Do, 17.09. 20:00 9.2° C bedeckt
Do, 17.09. 14:00 10.8° C Nebel
Do, 17.09. 8:00 12.1° C bedeckt
Ortszeit Temperatur Wetter
Sa, 19.09. 7:00 8.1° C wolkenlos
Sa, 19.09. 6:00 7.9° C -
Sa, 19.09. 5:00 7.7° C wolkenlos
Sa, 19.09. 4:00 6.0° C -
Sa, 19.09. 3:00 7.4° C wolkenlos
Sa, 19.09. 2:00 7.9° C -
Ortszeit Relative Feuchte Sichtweite
Sa, 19.09. 2:00 52% 35 km
Fr, 18.09. 20:00 59% 40 km
Fr, 18.09. 14:00 55% 50 km
Fr, 18.09. 8:00 85% 30 km
Fr, 18.09. 2:00 96% 19 km
Do, 17.09. 20:00 96% 7 km
Do, 17.09. 14:00 99% <100 m
Do, 17.09. 8:00 90% 18 km
Ortszeit Relative Feuchte Sichtweite
Sa, 19.09. 7:00 42% 35 km
Sa, 19.09. 6:00 36% 35 km
Sa, 19.09. 5:00 39% 35 km
Sa, 19.09. 4:00 54% 35 km
Sa, 19.09. 3:00 48% 35 km
Sa, 19.09. 2:00 52% 35 km
Ortszeit Niederschlagsmenge Niederschlagsart
Sa, 19.09. 2:00 0.0 l/m2 in 6 Std. -
Fr, 18.09. 20:00 0.0 l/m2 in 12 Std. -
Fr, 18.09. 14:00 0.0 l/m2 in 6 Std. -
Fr, 18.09. 8:00 0.0 l/m2 in 12 Std. -
Fr, 18.09. 2:00 0.0 l/m2 in 6 Std. -
Do, 17.09. 20:00 0.8 l/m2 in 12 Std. -
Do, 17.09. 14:00 0.7 l/m2 in 6 Std. Regen, Nebel
Do, 17.09. 8:00 0.0 l/m2 in 12 Std. -
Ortszeit Niederschlagsmenge Niederschlagsart
Sa, 19.09. 7:00 0.0 l/m2 in 1 Std. -
Sa, 19.09. 6:00 0.0 l/m2 in 1 Std. -
Sa, 19.09. 5:00 0.0 l/m2 in 1 Std. -
Sa, 19.09. 4:00 0.0 l/m2 in 1 Std. -
Sa, 19.09. 3:00 0.0 l/m2 in 1 Std. -
Sa, 19.09. 2:00 0.0 l/m2 in 1 Std. -
Ortszeit Stärke Spitze Richtung
km/h Bft. km/h Grad Sektor
Sa, 19.09. 2:00 7 2 - 110° O
Fr, 18.09. 20:00 7 2 - uml. uml.
Fr, 18.09. 14:00 11 2 - 60° NO
Fr, 18.09. 8:00 7 2 - 110° O
Fr, 18.09. 2:00 11 2 - 100° O
Do, 17.09. 20:00 11 2 - 30° NO
Do, 17.09. 14:00 7 2 - 10° N
Do, 17.09. 8:00 4 1 - uml. uml.
Ortszeit Stärke Spitze Richtung
km/h Bft. km/h Grad Sektor
Sa, 19.09. 7:00 11 2 - 90° O
Sa, 19.09. 6:00 7 2 - 110° O
Sa, 19.09. 5:00 7 2 - 110° O
Sa, 19.09. 4:00 7 2 - 200° S
Sa, 19.09. 3:00 4 1 - 130° SO
Sa, 19.09. 2:00 7 2 - 110° O
Ortszeit Untergrenze Bedeckung Gattung
total tief tief mittel hoch
Sa, 19.09. 2:00 - - - - - -
Fr, 18.09. 20:00 9000 m 1/8 0/8 - - Ci
Fr, 18.09. 14:00 - 0/8 0/8 - - -
Fr, 18.09. 8:00 9000 m 3/8 0/8 - - Ci
Fr, 18.09. 2:00 420 m - 7/8 - - -
Do, 17.09. 20:00 600 m 8/8 8/8 Sc - -
Do, 17.09. 14:00 30 m - - - - -
Do, 17.09. 8:00 300 m 8/8 2/8 Sc As -
Ortszeit Bedeckungsgrad in Achtel und Wolkenuntergrenze
Sa, 19.09. 7:00 6(9000m)
Sa, 19.09. 6:00 -
Sa, 19.09. 5:00 6(9000m)
Sa, 19.09. 4:00 -
Sa, 19.09. 3:00 6(9000m)
Sa, 19.09. 2:00 -
Ortszeit Stationsdruck (hPa) Tendenz (hPa in 3 Std.)
Sa, 19.09. 2:00 896 - 1,3
Fr, 18.09. 20:00 898 - 0,2
Fr, 18.09. 14:00 899 - 0,3
Fr, 18.09. 8:00 898 + 0,3
Fr, 18.09. 2:00 898 - 0,5
Do, 17.09. 20:00 898 + 0,5
Do, 17.09. 14:00 898 + 0,5
Do, 17.09. 8:00 896 + 1,2
Ortszeit Stationsdruck (hPa) Tendenz (hPa in 3 Std.)
Sa, 19.09. 7:00 894 - 1,1
Sa, 19.09. 6:00 894 - 1,4
Sa, 19.09. 5:00 895 - 1,5
Sa, 19.09. 4:00 895 - 1,4
Sa, 19.09. 3:00 896 - 1,2
Sa, 19.09. 2:00 896 - 1,3
Ortszeit Schneehöhe (cm)
Sa, 19.09. 2:00 -
Fr, 18.09. 20:00 -
Fr, 18.09. 14:00 -
Fr, 18.09. 8:00 -
Fr, 18.09. 2:00 -
Do, 17.09. 20:00 -
Do, 17.09. 14:00 -
Do, 17.09. 8:00 -
Ortszeit Schneehöhe (cm)
Sa, 19.09. 7:00 -
Sa, 19.09. 6:00 -
Sa, 19.09. 5:00 -
Sa, 19.09. 4:00 -
Sa, 19.09. 3:00 -
Sa, 19.09. 2:00 -
Link zu dieser Seite / Seite empfehlen

Das Wetter in ...